Location: Maiden
(35.5760°N, 81.2120°W)
Time: 03:19:50
(UTC-04:00)

Nadezhda 3 Rocket - Pass Details

Date: 02 August 2020
Orbit: 957 x 1000 km, 82.9° (Epoch: 12 August)

Event Time Altitude Azimuth Distance (km) Brightness Sun altitude
Rises 20:44:45 0° 356° (N) 3,679 7.5 -4.1°
Reaches altitude 10° 20:47:18 10° 358° (N) 2,721 6.7 -4.5°
Maximum altitude 20:53:31 72° 83° (E) 1,012 4.0 -5.7°
Drops below altitude 10° 20:59:38 10° 167° (SSE) 2,682 5.9 -6.8°
Sets 21:02:07 0° 170° (S) 3,622 6.6 -7.2°
